N7DTY Weather Reports


time (UTC)temp
F
wind
direction
speed
knots
gust
knots
rain 1hr
in
rain 24hr
in
rain mn
in
humidity
%
barometer
mb
20260504194509 67 169 1.7 6.1 0.00 0.00 0.00 62 1010.3
20260504193007 67 168 3.5 6.1 0.00 0.00 0.00 60 1010.3
20260504191512 68 169 0.9 5.2 0.00 0.00 0.00 65 1010.2
20260504190006 68 223 0.0 2.6 0.00 0.00 0.00 67 1010.2
20260504184503 68 199 0.9 6.1 0.00 0.00 0.00 68 1010.1
20260504183003 68 165 0.9 3.5 0.00 0.00 0.00 67 1010.2
20260504181609 66 187 0.9 4.3 0.00 0.00 0.00 70 1010.3
20260504180056 66 238 0.9 4.3 0.00 0.00 0.00 71 1010.2
20260504174552 64 192 0.9 5.2 0.00 0.00 0.00 71 1010.1
20260504173055 63 238 0.9 2.6 0.00 0.00 0.00 71 1010.2
20260504171549 63 178 0.9 2.6 0.00 0.00 0.00 70 1010.2
20260504100105 53 197 0.0 0.0 0.00 0.00 0.00 81 1009.4
20260504081551 54 197 0.0 0.0 0.00 0.00 0.00 81 1009.2
20260504044532 57 197 0.0 0.9 0.00 0.00 0.00 77 1009.3
20260504043039 58 197 0.0 0.0 0.00 0.00 0.00 76 1009.3
20260504041531 58 197 0.0 0.0 0.00 0.00 0.00 75 1009.4
20260504040031 59 197 0.0 0.9 0.00 0.00 0.00 75 1009.3
20260504034530 59 197 0.0 0.0 0.00 0.00 0.00 72 1009.2
20260504033030 60 197 0.0 0.0 0.00 0.00 0.00 70 1009.3
20260504031533 61 197 0.0 0.9 0.00 0.00 0.00 70 1009.3
20260504030028 62 186 0.0 0.0 0.00 0.00 0.00 71 1009.4
20260504024533 63 173 0.0 0.9 0.00 0.00 0.00 69 1009.3
20260504023027 64 173 0.0 0.9 0.00 0.00 0.00 70 1009.3
20260504021526 65 173 0.0 0.9 0.00 0.00 0.00 67 1009.4
20260504020024 65 173 0.0 1.7 0.00 0.00 0.00 66 1009.6
20260504014533 66 173 0.0 2.6 0.00 0.00 0.00 62 1009.6
20260504013033 67 189 0.9 4.3 0.00 0.00 0.00 60 1009.8
20260504011522 67 172 1.7 3.5 0.00 0.00 0.00 61 1009.9
20260504010020 68 223 0.0 3.5 0.00 0.00 0.00 62 1010.1
20260504004518 69 159 0.0 2.6 0.00 0.00 0.00 62 1010.2
20260504003017 70 180 0.9 6.1 0.00 0.00 0.00 61 1010.5
20260504001515 73 179 2.6 5.2 0.00 0.00 0.00 57 1010.4
20260504000013 77 341 0.0 4.3 0.00 0.00 0.00 46 1010.6
20260503234512 77 298 1.7 7.0 0.00 0.00 0.00 47 1010.8
20260503233018 78 158 1.7 3.5 0.00 0.00 0.00 47 1010.9
20260503231510 76 215 0.9 3.5 0.00 0.00 0.00 52 1010.9
20260503230006 78 257 0.9 5.2 0.00 0.00 0.00 49 1011.2
20260503224505 76 30 2.6 4.3 0.00 0.00 0.00 47 1011.4
20260503223003 77 288 0.9 4.3 0.00 0.00 0.00 45 1011.5
20260503221501 77 22 0.0 4.3 0.00 0.00 0.00 44 1011.7
20260503220059 76 292 0.0 2.6 0.00 0.00 0.00 45 1011.9
20260503214601 76 26 0.9 4.3 0.00 0.00 0.00 48 1012.0
20260503213057 76 305 0.9 7.0 0.00 0.00 0.00 42 1012.1
20260503211556 77 360 2.6 7.0 0.00 0.00 0.00 42 1012.1
20260503210054 76 190 0.9 4.3 0.00 0.00 0.00 45 1012.2
20260503204552 77 343 1.7 7.0 0.00 0.00 0.00 45 1012.5
20260503203104 74 24 1.7 4.3 0.00 0.00 0.00 41 1012.9
20260503201546 74 345 1.7 8.7 0.00 0.00 0.00 46 1013.0
20260503200043 73 227 2.6 7.0 0.00 0.00 0.00 48 1013.3